Location: Unspecified
(0.0000°N, 0.0000°E)
Time: 22:47:53
(UTC+02:00)

AO-40 - Visible Passes

Search period start: 29 March 2015 00:00
Search period end: 08 April 2015 01:00
Orbit: 1050 x 58771 km, 9.1° (Epoch: 27 March)

Date Brightness Start Highest point End Pass type
(mag) Time Alt. Az. Time Alt. Az. Time Alt. Az.
29 Mar ? 09:22:23 10° WSW 04:23:18 18° ESE 04:25:43 10° ESE visible
30 Mar ? 09:53:36 10° E 23:03:11 76° N 23:05:49 70° NE visible
02 Apr ? 08:54:47 10° WSW 03:57:03 11° ESE 03:57:24 10° ESE visible
03 Apr ? 09:45:20 10° E 22:34:30 76° N 22:39:51 58° ENE visible
07 Apr ? 09:36:53 10° E 22:05:39 76° N 22:13:52 45° ENE visible
